DateTimeUTC,F1_A11,F1_S11,BsB_S11,BsG_S11,BsR_S11,BbsB_S11,BbsG_S11,BbsR_S11,BaB_A11,BaG_A11,BaR_A11,Tu_S11,T_S11,Uu_S11,U_S11,P_S11,T1_A11
2021-05-03T01:00:00Z,00000200,21000000,,,,,,,-000.31,0000.07,-000.26,17.9,25.2,,00.0,0682.4,31.1
2021-05-03T01:01:00Z,00000200,21000000,,,,,,,0000.28,-000.43,-000.39,17.9,25.2,,00.0,0682.4,31.1
2021-05-03T01:02:00Z,00000200,21000000,,,,,,,-000.19,-000.25,0000.10,17.9,25.2,,00.0,0682.4,31.1
2021-05-03T01:03:00Z,00000200,61000000,,,,,,,0000.52,0000.88,0000.55,17.9,25.2,,00.0,0682.4,31.1
2021-05-03T01:04:00Z,00000200,41000000,0002.36,0001.29,0001.02,0000.39,0000.33,0000.15,0000.91,0000.91,0000.54,18.0,25.0,,00.0,0683.3,31.1
2021-05-03T01:05:00Z,00000200,01000000,0002.04,0001.27,0000.92,0000.19,0000.17,0000.42,0001.03,0000.42,0000.56,18.0,24.9,,00.0,0683.3,31.1
2021-05-03T01:06:00Z,00000200,01000000,0002.74,0001.55,0000.83,0000.11,0000.25,0000.28,0000.80,0000.56,0000.42,18.0,24.9,,00.0,0683.4,31.1
2021-05-03T01:07:00Z,00000200,01000000,0003.13,0001.67,0000.91,0000.06,-000.09,0000.12,0000.78,0000.90,0000.59,18.0,24.9,,00.0,0683.3,31.1
2021-05-03T01:08:00Z,00000200,01000000,0002.56,0001.52,0000.99,0000.35,0000.27,0000.41,0001.00,0000.89,0000.53,18.0,24.9,,00.0,0683.3,31.1
2021-05-03T01:09:00Z,00000200,01000000,0002.50,0001.97,0000.80,-000.04,0000.16,0000.22,0000.63,0000.69,0000.72,18.0,24.9,,00.0,0683.3,31.1
2021-05-03T01:10:00Z,00000200,01000000,0003.43,0001.70,0001.16,0000.26,0000.10,0000.36,0001.11,0000.98,0000.52,18.0,24.9,,00.0,0683.3,31.1
2021-05-03T01:11:00Z,00000200,01000000,0002.41,0001.48,0001.08,0000.45,0000.15,0000.18,0000.71,0000.77,0000.55,18.0,24.8,,00.0,0683.3,31.1
2021-05-03T01:12:00Z,00000200,01000000,0002.82,0001.78,0001.25,0000.59,0000.38,0000.31,0001.28,0001.35,0000.73,18.0,24.8,,00.0,0683.3,31.1
2021-05-03T01:13:00Z,00000200,01000000,0002.54,0001.71,0000.77,-000.21,0000.31,0000.25,0000.52,0000.26,0000.24,18.0,24.8,,00.0,0683.3,31.1
2021-05-03T01:14:00Z,00000200,01000000,0002.76,0001.70,0001.17,0000.06,0000.30,0000.30,0001.45,0000.88,0000.71,18.0,24.8,,00.0,0683.3,31.1
2021-05-03T01:15:00Z,00000200,01000000,0002.51,0001.70,0000.74,0000.10,0000.27,0000.30,0000.69,0000.75,0000.49,18.0,24.8,,00.0,0683.3,31.1
2021-05-03T01:16:00Z,00000200,01000000,0001.95,0001.77,0001.22,-000.20,0000.63,0000.41,0000.84,0000.87,0000.92,18.0,24.8,,00.0,0683.3,31.1
2021-05-03T01:17:00Z,00000200,01000000,0002.93,0001.95,0001.27,0000.22,0000.43,0000.33,0000.58,0000.73,0000.12,18.0,24.8,,00.0,0683.2,31.1
2021-05-03T01:18:00Z,00000200,01000000,0002.33,0001.80,0001.09,0000.60,0000.23,0000.26,0001.17,0000.54,0000.65,18.0,24.8,,00.0,0683.2,31.1
2021-05-03T01:19:00Z,00000200,01000000,0003.16,0002.04,0001.22,0000.15,0000.27,0000.29,0000.94,0001.11,0000.62,17.9,24.8,,00.0,0683.2,31.1
2021-05-03T01:20:00Z,00000200,01000000,0003.25,0001.99,0001.28,0000.49,0000.25,0000.38,0001.20,0001.06,0001.24,18.0,24.7,,00.0,0683.2,31.1
2021-05-03T01:21:00Z,00000200,01000000,0003.07,0001.98,0001.11,0000.48,0000.28,0000.17,0001.35,0001.06,0000.36,17.9,24.8,,00.0,0683.2,31.1
2021-05-03T01:22:00Z,00000200,01000000,0003.14,0001.98,0001.08,0000.14,0000.16,0000.62,0000.83,0000.68,0000.61,17.9,24.7,,00.0,0683.2,31.1
2021-05-03T01:23:00Z,00000200,01000000,0003.30,0001.72,0001.21,-000.13,0000.37,0000.32,0001.00,0000.75,0000.48,17.9,24.7,,00.0,0683.2,31.1
2021-05-03T01:24:00Z,00000200,01000000,0002.84,0001.89,0001.32,0000.13,0000.65,0000.28,0000.75,0000.96,0000.73,17.9,24.7,,00.0,0683.2,31.1
2021-05-03T01:25:00Z,00000200,01000000,0003.55,0001.66,0001.41,0000.43,0000.25,0000.60,0001.23,0001.14,0000.80,17.9,24.7,,00.0,0683.2,31.1
2021-05-03T01:26:00Z,00000200,01000000,0002.97,0002.14,0000.93,0000.32,0000.06,0000.43,0000.79,0000.70,0000.79,17.9,24.7,,00.0,0683.2,31.1
2021-05-03T01:27:00Z,00000200,01000000,0003.19,0001.93,0001.29,0000.42,0000.28,0000.32,0001.31,0001.22,0000.55,17.9,24.7,,00.0,0683.2,31.1
2021-05-03T01:28:00Z,00000200,01000000,0002.37,0001.81,0000.99,0000.05,0000.26,0000.12,0000.88,0000.61,0000.25,17.9,24.7,,00.0,0683.2,31.1
2021-05-03T01:29:00Z,00000200,01000000,0002.80,0001.22,0001.12,0000.10,0000.36,0000.58,0001.07,0000.87,0000.92,18.0,24.7,,00.0,0683.2,31.1
2021-05-03T01:30:00Z,00000200,01000000,0003.22,0001.66,0001.18,0000.34,0000.27,0000.48,0000.61,0000.88,0000.60,17.9,24.7,,00.0,0683.2,31.1
2021-05-03T01:31:00Z,00000200,01000000,0003.37,0002.06,0001.23,-000.34,0000.18,0000.31,0001.36,0000.79,0000.70,18.0,24.7,,00.0,0683.2,31.1
2021-05-03T01:32:00Z,00000200,01000000,0002.84,0002.04,0001.24,0000.14,0000.21,0000.49,0001.08,0000.68,0000.29,17.9,24.7,,00.0,0683.2,31.1
2021-05-03T01:33:00Z,00000200,01000000,0002.82,0001.73,0001.38,-000.01,0000.20,0000.36,0000.70,0001.27,0001.01,17.9,24.7,,00.0,0683.2,31.1
2021-05-03T01:34:00Z,00000200,01000000,0003.34,0002.21,0001.32,0000.56,0000.36,0000.27,0001.54,0001.02,0000.67,17.9,24.7,,00.0,0683.2,31.1
2021-05-03T01:35:00Z,00000200,01000000,0003.33,0002.53,0001.52,-000.04,0000.60,0000.55,0001.10,0001.21,0000.80,17.9,24.7,,00.0,0683.2,31.1
2021-05-03T01:36:00Z,00000200,01000000,0003.15,0002.24,0000.91,0000.31,0000.28,0000.35,0001.01,0000.74,0000.58,17.9,24.7,,00.0,0683.1,31.1
2021-05-03T01:37:00Z,00000200,01000000,0003.54,0002.48,0001.45,0000.28,0000.21,0000.24,0001.06,0001.06,0000.86,17.9,24.6,,00.0,0683.1,31.1
2021-05-03T01:38:00Z,00000200,01000000,0003.61,0002.09,0001.25,0000.17,0000.32,0000.37,0001.36,0001.11,0000.69,17.9,24.6,,00.0,0683.2,31.1
2021-05-03T01:39:00Z,00000200,01000000,0003.90,0002.20,0001.84,0000.79,0000.44,0000.63,0000.88,0001.07,0000.58,17.8,24.6,,00.0,0683.1,31.1
2021-05-03T01:40:00Z,00000200,01000000,0004.19,0002.15,0001.43,0000.15,0000.40,0000.52,0001.22,0001.10,0000.86,17.8,24.6,,00.0,0683.1,31.1
2021-05-03T01:41:00Z,00000200,01000000,0003.70,0002.07,0001.28,-000.24,0000.35,-000.01,0001.30,0000.92,0000.81,17.8,24.6,,00.0,0683.1,31.1
2021-05-03T01:42:00Z,00000200,01000000,0003.47,0002.41,0001.24,0000.19,0000.20,0000.40,0001.57,0001.09,0000.82,17.8,24.6,,00.0,0683.2,31.1
2021-05-03T01:43:00Z,00000200,01000000,0004.06,0002.56,0001.32,0000.37,0000.58,0000.23,0000.94,0001.31,0000.82,17.9,24.6,,00.0,0683.1,31.1
2021-05-03T01:44:00Z,00000200,01000000,0003.36,0002.26,0001.34,0000.24,0000.39,0000.23,0001.09,0000.96,0000.66,17.9,24.6,,00.0,0683.1,31.1
2021-05-03T01:45:00Z,00000200,01000000,0004.11,0002.58,0001.58,0000.19,0000.15,0000.54,0001.81,0001.51,0001.01,17.9,24.6,,00.0,0683.1,31.1
2021-05-03T01:46:00Z,00000200,01000000,0003.39,0002.58,0001.88,-000.04,0000.48,0000.72,0001.39,0000.98,0000.85,17.9,24.6,,00.0,0683.1,31.1
2021-05-03T01:47:00Z,00000200,01000000,0003.70,0002.88,0001.99,0000.43,0000.39,0000.82,0001.14,0001.49,0001.10,17.9,24.6,,00.0,0683.1,31.1
2021-05-03T01:48:00Z,00000200,01000000,0004.21,0003.21,0001.69,0000.26,0000.69,0000.12,0001.68,0001.10,0000.89,17.9,24.6,,00.0,0683.1,31.1
2021-05-03T01:49:00Z,00000200,01000000,0004.80,0003.00,0001.63,0000.01,0000.25,0000.72,0001.48,0001.45,0000.90,17.9,24.6,,00.0,0683.1,31.1
2021-05-03T01:50:00Z,00000200,01000000,0005.20,0003.12,0001.73,0000.56,0000.47,0000.30,0001.89,0001.57,0001.34,17.9,24.6,,00.0,0683.1,31.1
2021-05-03T01:51:00Z,00000200,01000000,0004.92,0003.53,0001.93,0000.46,0000.40,0000.67,0001.72,0001.54,0000.85,17.9,24.6,,00.0,0683.1,31.1
2021-05-03T01:52:00Z,00000200,01000000,0004.25,0003.41,0002.08,0001.03,0000.63,0000.60,0001.76,0001.61,0001.35,17.9,24.6,,00.0,0683.1,31.1
2021-05-03T01:53:00Z,00000200,01000000,0004.94,0003.48,0002.12,0000.17,0000.45,0000.55,0002.08,0001.59,0001.45,17.8,24.6,,00.0,0683.1,31.1
2021-05-03T01:54:00Z,00000200,01000000,0004.91,0003.22,0002.10,0000.59,0000.37,0000.59,0001.67,0001.66,0001.13,17.8,24.6,,00.0,0683.1,31.0
2021-05-03T01:55:00Z,00000200,01000000,0005.16,0003.34,0002.06,0000.74,0000.40,0000.33,0001.99,0001.83,0000.90,17.8,24.5,,00.0,0683.1,31.0
2021-05-03T01:56:00Z,00000200,01000000,0005.31,0003.35,0002.16,0000.14,0000.68,0000.35,0002.05,0001.77,0001.25,17.8,24.5,,00.0,0683.1,31.0
2021-05-03T01:57:00Z,00000200,41000000,,,,,,,0000.71,0000.99,0000.71,17.9,24.6,,00.0,0683.1,31.0
2021-05-03T01:58:00Z,00000200,61000000,,,,,,,-000.13,-000.56,-000.33,17.6,24.7,,00.0,0682.1,31.1
2021-05-03T01:59:00Z,00000200,21000000,,,,,,,-000.27,0000.24,-000.14,17.6,24.8,,00.0,0682.1,31.0
